Time,TemperatureF,DewpointF,PressureIn,WindDirection,WindDirectionDegrees,WindSpeedMPH,WindSpeedGustMPH,Humidity,HourlyPrecipIn,Conditions,Clouds,dailyrainin,SolarRadiationWatts/m^2,SoftwareType,DateUTC
2013-07-01 00:24:00,61.0,36.0,-100.00,ESE,120,1.0,5.0,40,0.00,,,0.00,1.000000,,2013-07-01 06:24:00,
2013-07-01 00:33:00,61.0,36.0,-100.00,ESE,120,1.0,5.0,40,0.00,,,0.00,1.000000,,2013-07-01 06:33:00,
2013-07-01 00:43:00,61.0,36.0,-100.00,ESE,120,1.0,5.0,40,0.00,,,0.00,1.000000,,2013-07-01 06:43:00,
2013-07-01 00:53:00,61.0,36.0,-100.00,ESE,120,1.0,5.0,40,0.00,,,0.00,1.000000,,2013-07-01 06:53:00,
2013-07-01 01:22:00,61.0,36.0,-100.00,ENE,73,3.0,4.0,40,0.00,,,0.00,1.000000,,2013-07-01 07:22:00,
2013-07-01 01:33:00,61.0,36.0,-100.00,ENE,73,3.0,4.0,40,0.00,,,0.00,1.000000,,2013-07-01 07:33:00,
2013-07-01 01:43:00,61.0,36.0,-100.00,ENE,73,3.0,4.0,40,0.00,,,0.00,1.000000,,2013-07-01 07:43:00,
2013-07-01 01:53:00,61.0,36.0,-100.00,ENE,73,3.0,4.0,40,0.00,,,0.00,1.000000,,2013-07-01 07:53:00,
2013-07-01 02:33:00,61.0,36.0,-100.00,East,86,5.0,7.0,40,0.00,,,0.00,1.000000,,2013-07-01 08:33:00,
2013-07-01 02:42:00,61.0,36.0,-100.00,East,86,5.0,7.0,40,0.00,,,0.00,1.000000,,2013-07-01 08:42:00,
2013-07-01 02:52:00,61.0,36.0,-100.00,East,86,5.0,7.0,40,0.00,,,0.00,1.000000,,2013-07-01 08:52:00,
2013-07-01 03:22:00,58.0,36.0,-100.00,ENE,70,5.0,7.0,43,0.00,,,0.00,1.000000,,2013-07-01 09:22:00,
2013-07-01 03:34:00,58.0,36.0,-100.00,ENE,70,5.0,7.0,43,0.00,,,0.00,1.000000,,2013-07-01 09:34:00,
2013-07-01 03:43:00,58.0,36.0,-100.00,ENE,70,5.0,7.0,43,0.00,,,0.00,1.000000,,2013-07-01 09:43:00,
2013-07-01 03:53:00,58.0,36.0,-100.00,ENE,70,5.0,7.0,43,0.00,,,0.00,1.000000,,2013-07-01 09:53:00,
2013-07-01 04:22:00,56.0,36.0,-100.00,ENE,65,4.0,6.0,47,0.00,,,0.00,1.000000,,2013-07-01 10:22:00,
2013-07-01 04:33:00,56.0,36.0,-100.00,ENE,65,4.0,6.0,47,0.00,,,0.00,1.000000,,2013-07-01 10:33:00,
2013-07-01 04:42:00,56.0,36.0,-100.00,ENE,65,4.0,6.0,47,0.00,,,0.00,1.000000,,2013-07-01 10:42:00,
2013-07-01 04:52:00,56.0,36.0,-100.00,ENE,65,4.0,6.0,47,0.00,,,0.00,1.000000,,2013-07-01 10:52:00,
2013-07-01 05:22:00,54.0,36.0,-100.00,NE,42,3.0,6.0,50,0.00,,,0.00,1.000000,,2013-07-01 11:22:00,
2013-07-01 05:33:00,54.0,36.0,-100.00,NE,42,3.0,6.0,50,0.00,,,0.00,1.000000,,2013-07-01 11:33:00,
2013-07-01 05:43:00,54.0,36.0,-100.00,NE,42,3.0,6.0,50,0.00,,,0.00,1.000000,,2013-07-01 11:43:00,
2013-07-01 05:52:00,54.0,36.0,-100.00,NE,42,3.0,6.0,50,0.00,,,0.00,1.000000,,2013-07-01 11:52:00,
2013-07-01 06:22:00,51.0,36.0,-100.00,ESE,107,0.0,4.0,56,0.00,,,0.00,1.000000,,2013-07-01 12:22:00,
2013-07-01 06:33:00,51.0,36.0,-100.00,ESE,107,0.0,4.0,56,0.00,,,0.00,1.000000,,2013-07-01 12:33:00,
2013-07-01 06:43:00,51.0,36.0,-100.00,ESE,107,0.0,4.0,56,0.00,,,0.00,1.000000,,2013-07-01 12:43:00,
2013-07-01 06:53:00,51.0,36.0,-100.00,ESE,107,0.0,4.0,56,0.00,,,0.00,1.000000,,2013-07-01 12:53:00,
2013-07-01 07:33:00,52.0,37.0,-100.00,East,83,2.0,3.0,57,0.00,,,0.00,27.000000,,2013-07-01 13:33:00,
2013-07-01 07:43:00,52.0,37.0,-100.00,East,83,2.0,3.0,57,0.00,,,0.00,27.000000,,2013-07-01 13:43:00,
2013-07-01 07:53:00,52.0,37.0,-100.00,East,83,2.0,3.0,57,0.00,,,0.00,27.000000,,2013-07-01 13:53:00,
2013-07-01 08:34:00,67.0,41.0,-100.00,NNE,24,2.0,3.0,39,0.00,,,0.00,187.000000,,2013-07-01 14:34:00,
2013-07-01 08:43:00,67.0,41.0,-100.00,NNE,24,2.0,3.0,39,0.00,,,0.00,187.000000,,2013-07-01 14:43:00,
2013-07-01 08:52:00,67.0,41.0,-100.00,NNE,24,2.0,3.0,39,0.00,,,0.00,187.000000,,2013-07-01 14:52:00,
2013-07-01 09:23:00,71.0,40.0,-100.00,WNW,283,3.0,8.0,33,0.00,,,0.00,411.000000,,2013-07-01 15:23:00,
2013-07-01 09:34:00,71.0,40.0,-100.00,WNW,283,3.0,8.0,33,0.00,,,0.00,411.000000,,2013-07-01 15:34:00,
2013-07-01 09:43:00,71.0,40.0,-100.00,WNW,283,3.0,8.0,33,0.00,,,0.00,411.000000,,2013-07-01 15:43:00,
2013-07-01 09:52:00,71.0,40.0,-100.00,WNW,283,3.0,8.0,33,0.00,,,0.00,411.000000,,2013-07-01 15:52:00,
2013-07-01 10:33:00,73.0,40.0,-100.00,WNW,300,4.0,10.0,30,0.00,,,0.00,603.000000,,2013-07-01 16:33:00,
2013-07-01 10:44:00,73.0,40.0,-100.00,WNW,300,4.0,10.0,30,0.00,,,0.00,603.000000,,2013-07-01 16:44:00,
2013-07-01 10:53:00,73.0,40.0,-100.00,WNW,300,4.0,10.0,30,0.00,,,0.00,603.000000,,2013-07-01 16:53:00,
2013-07-01 11:23:00,77.0,39.0,-100.00,West,273,4.0,10.0,26,0.00,,,0.00,778.000000,,2013-07-01 17:23:00,
2013-07-01 11:34:00,77.0,39.0,-100.00,West,273,4.0,10.0,26,0.00,,,0.00,778.000000,,2013-07-01 17:34:00,
2013-07-01 11:43:00,77.0,39.0,-100.00,West,273,4.0,10.0,26,0.00,,,0.00,778.000000,,2013-07-01 17:43:00,
2013-07-01 11:53:00,77.0,39.0,-100.00,West,273,4.0,10.0,26,0.00,,,0.00,778.000000,,2013-07-01 17:53:00,
2013-07-01 12:22:00,80.0,38.0,-100.00,West,275,6.0,11.0,22,0.00,,,0.00,910.000000,,2013-07-01 18:22:00,
2013-07-01 12:33:00,80.0,38.0,-100.00,West,275,6.0,11.0,22,0.00,,,0.00,910.000000,,2013-07-01 18:33:00,
2013-07-01 12:43:00,80.0,38.0,-100.00,West,275,6.0,11.0,22,0.00,,,0.00,910.000000,,2013-07-01 18:43:00,
2013-07-01 12:52:00,80.0,38.0,-100.00,West,275,6.0,11.0,22,0.00,,,0.00,910.000000,,2013-07-01 18:52:00,
2013-07-01 13:22:00,82.0,33.0,-100.00,NE,54,7.0,17.0,17,0.00,,,0.00,767.000000,,2013-07-01 19:22:00,
2013-07-01 13:33:00,82.0,33.0,-100.00,NE,54,7.0,17.0,17,0.00,,,0.00,767.000000,,2013-07-01 19:33:00,
2013-07-01 13:44:00,82.0,33.0,-100.00,NE,54,7.0,17.0,17,0.00,,,0.00,767.000000,,2013-07-01 19:44:00,
2013-07-01 13:52:00,82.0,33.0,-100.00,NE,54,7.0,17.0,17,0.00,,,0.00,767.000000,,2013-07-01 19:52:00,
2013-07-01 14:22:00,83.0,32.0,-100.00,NE,53,8.0,18.0,16,0.00,,,0.00,910.000000,,2013-07-01 20:22:00,
2013-07-01 14:34:00,83.0,32.0,-100.00,NE,53,8.0,18.0,16,0.00,,,0.00,910.000000,,2013-07-01 20:34:00,
2013-07-01 14:43:00,83.0,32.0,-100.00,NE,53,8.0,18.0,16,0.00,,,0.00,910.000000,,2013-07-01 20:43:00,
2013-07-01 14:52:00,83.0,32.0,-100.00,NE,53,8.0,18.0,16,0.00,,,0.00,910.000000,,2013-07-01 20:52:00,
2013-07-01 15:24:00,85.0,30.0,-100.00,NNW,342,6.0,16.0,14,0.00,,,0.00,1078.000000,,2013-07-01 21:24:00,
2013-07-01 15:34:00,85.0,30.0,-100.00,NNW,342,6.0,16.0,14,0.00,,,0.00,1078.000000,,2013-07-01 21:34:00,
2013-07-01 15:43:00,85.0,30.0,-100.00,NNW,342,6.0,16.0,14,0.00,,,0.00,1078.000000,,2013-07-01 21:43:00,
2013-07-01 15:53:00,85.0,30.0,-100.00,NNW,342,6.0,16.0,14,0.00,,,0.00,1078.000000,,2013-07-01 21:53:00,
2013-07-01 16:33:00,83.0,31.0,-100.00,NE,49,8.0,17.0,15,0.00,,,0.00,742.000000,,2013-07-01 22:33:00,
2013-07-01 16:43:00,83.0,31.0,-100.00,NE,49,8.0,17.0,15,0.00,,,0.00,742.000000,,2013-07-01 22:43:00,
2013-07-01 16:53:00,83.0,31.0,-100.00,NE,49,8.0,17.0,15,0.00,,,0.00,742.000000,,2013-07-01 22:53:00,
2013-07-01 17:22:00,85.0,29.0,-100.00,North,5,6.0,15.0,13,0.00,,,0.00,784.000000,,2013-07-01 23:22:00,
2013-07-01 17:33:00,85.0,29.0,-100.00,North,5,6.0,15.0,13,0.00,,,0.00,784.000000,,2013-07-01 23:33:00,
2013-07-01 17:44:00,85.0,29.0,-100.00,North,5,6.0,15.0,13,0.00,,,0.00,784.000000,,2013-07-01 23:44:00,
2013-07-01 17:53:00,85.0,29.0,-100.00,North,5,6.0,15.0,13,0.00,,,0.00,784.000000,,2013-07-01 23:53:00,
2013-07-01 18:22:00,82.0,30.0,-100.00,NE,41,7.0,15.0,15,0.00,,,0.00,541.000000,,2013-07-02 00:22:00,
2013-07-01 18:34:00,82.0,30.0,-100.00,NE,41,7.0,15.0,15,0.00,,,0.00,541.000000,,2013-07-02 00:34:00,
2013-07-01 18:43:00,82.0,30.0,-100.00,NE,41,7.0,15.0,15,0.00,,,0.00,541.000000,,2013-07-02 00:43:00,
2013-07-01 18:53:00,82.0,30.0,-100.00,NE,41,7.0,15.0,15,0.00,,,0.00,541.000000,,2013-07-02 00:53:00,
2013-07-01 19:33:00,81.0,29.0,-100.00,NE,46,7.0,18.0,15,0.00,,,0.00,356.000000,,2013-07-02 01:33:00,
2013-07-01 19:43:00,81.0,29.0,-100.00,NE,46,7.0,18.0,15,0.00,,,0.00,356.000000,,2013-07-02 01:43:00,
2013-07-01 19:53:00,81.0,29.0,-100.00,NE,46,7.0,18.0,15,0.00,,,0.00,356.000000,,2013-07-02 01:53:00,
2013-07-01 20:22:00,78.0,27.0,-100.00,NE,44,7.0,14.0,15,0.00,,,0.00,176.000000,,2013-07-02 02:22:00,
2013-07-01 20:33:00,78.0,27.0,-100.00,NE,44,7.0,14.0,15,0.00,,,0.00,176.000000,,2013-07-02 02:33:00,
2013-07-01 20:43:00,78.0,27.0,-100.00,NE,44,7.0,14.0,15,0.00,,,0.00,176.000000,,2013-07-02 02:43:00,
2013-07-01 20:53:00,78.0,27.0,-100.00,NE,44,7.0,14.0,15,0.00,,,0.00,176.000000,,2013-07-02 02:53:00,
2013-07-01 21:24:00,73.0,30.0,-100.00,NE,48,6.0,15.0,20,0.00,,,0.00,20.000000,,2013-07-02 03:24:00,
2013-07-01 21:32:00,73.0,30.0,-100.00,NE,48,6.0,15.0,20,0.00,,,0.00,20.000000,,2013-07-02 03:32:00,
2013-07-01 21:43:00,73.0,30.0,-100.00,NE,48,6.0,15.0,20,0.00,,,0.00,20.000000,,2013-07-02 03:43:00,
2013-07-01 21:53:00,73.0,30.0,-100.00,NE,48,6.0,15.0,20,0.00,,,0.00,20.000000,,2013-07-02 03:53:00,
2013-07-01 22:22:00,70.0,30.0,-100.00,NE,45,5.0,10.0,23,0.00,,,0.00,1.000000,,2013-07-02 04:22:00,
2013-07-01 22:32:00,70.0,30.0,-100.00,NE,45,5.0,10.0,23,0.00,,,0.00,1.000000,,2013-07-02 04:32:00,
2013-07-01 22:42:00,70.0,30.0,-100.00,NE,45,5.0,10.0,23,0.00,,,0.00,1.000000,,2013-07-02 04:42:00,
2013-07-01 22:53:00,70.0,30.0,-100.00,NE,45,5.0,10.0,23,0.00,,,0.00,1.000000,,2013-07-02 04:53:00,
2013-07-01 23:22:00,69.0,26.0,-100.00,ENE,63,5.0,10.0,20,0.00,,,0.00,1.000000,,2013-07-02 05:22:00,
2013-07-01 23:32:00,69.0,26.0,-100.00,ENE,63,5.0,10.0,20,0.00,,,0.00,1.000000,,2013-07-02 05:32:00,
2013-07-01 23:43:00,69.0,26.0,-100.00,ENE,63,5.0,10.0,20,0.00,,,0.00,1.000000,,2013-07-02 05:43:00,
2013-07-01 23:53:00,69.0,26.0,-100.00,ENE,63,5.0,10.0,20,0.00,,,0.00,1.000000,,2013-07-02 05:53:00,